Weather History for Scottsboro, AL

Change the Weather History Date:

Friday, August 8, 2014

  Actual Average (KHSV) Record (KHSV)
Temperature  
Mean Temperature 79 °F 81 °F  
Max Temperature 89 °F 91 °F 108 °F (1930)
Min Temperature 69 °F 70 °F 54 °F (1989)
Degree Days  
Heating Degree Days 0 0  
Month to date heating degree days 0  
Since 1 June heating degree days 1  
Since 1 July heating degree days 0  
Cooling Degree Days 14 16  
Month to date cooling degree days 128  
Year to date cooling degree days 1253  
Since 1 June cooling degree days 990  
Growing Degree Days 29 (Base 50)    
Moisture  
Dew Point 72 °F    
Average Humidity 88    
Maximum Humidity 100    
Minimum Humidity 52    
Precipitation  
Precipitation 0.91 in 0.12 in 1.57 in (2011)
Month to date precipitation 1.00  
Year to date precipitation 33.71  
Snow  
Snow 0.00 in - - ()
Month to date snowfall  
Since 1 June snowfall  
Since 1 July snowfall  
Snow Depth -    
Sea Level Pressure  
Sea Level Pressure 30.01 in    
Wind  
Wind Speed 2 mph (NNE)    
Max Wind Speed 18 mph    
Max Gust Speed 33 mph    
Visibility 6 miles    
Events Fog , Rain , Thunderstorm    
T = Trace of Precipitation, MM = Missing Value Source: NWS Daily Summary

Daily Weather History Graph

Daily Weather History Graph

Search for Another Location

Airport:

Trip Planner

Search our weather history database for the weather conditions in past years. The results will help you decide how hot, cold, wet, or windy it might be!

Date:

Astronomy

Aug. 08, 2014 Rise Set
Actual Time 5:59 AM CDT 7:39 PM CDT
Civil Twilight 5:32 AM CDT 8:06 PM CDT
Nautical Twilight 4:59 AM CDT 8:39 PM CDT
Astronomical Twilight 4:24 AM CDT 9:13 PM CDT
Moon 5:49 PM CDT (8/8) 3:32 AM CDT (8/8)
Length of Visible Light 14h 34m
Length of Day
13h 40m
Waxing Gibbous, 94% of the Moon is Illuminated
Aug 8
Waxing Gibbous
Aug 10
Full
Aug 17
Last Quarter
Aug 25
New
Sep 2
First Quarter

Hourly Weather History & Observations

Time (CDT) Temp. Heat Index Dew Point Humidity Pressure Visibility Wind Dir Wind Speed Gust Speed Precip Events Conditions
12:15 AM 71.6 °F - 71.6 °F 100% 30.00 in 5.0 mi NE 3.5 mph - N/A   Mist
12:35 AM 71.6 °F - 71.6 °F 100% 30.00 in 4.0 mi Calm Calm - N/A   Mist
12:55 AM 71.6 °F - 71.6 °F 100% 30.00 in 5.0 mi Calm Calm - N/A   Mist
1:15 AM 71.6 °F - 71.6 °F 100% 30.00 in 5.0 mi Calm Calm - N/A   Mist
1:35 AM 71.6 °F - 71.6 °F 100% 29.99 in 5.0 mi North 3.5 mph - N/A   Mist
1:55 AM 71.6 °F - 71.6 °F 100% 29.99 in 5.0 mi Calm Calm - N/A   Clear
2:15 AM 71.6 °F - 71.6 °F 100% 29.99 in 5.0 mi Calm Calm - N/A   Clear
2:35 AM 71.6 °F - 71.6 °F 100% 29.98 in 5.0 mi North 3.5 mph - N/A   Partly Cloudy
2:55 AM 71.6 °F - 71.6 °F 100% 29.98 in 5.0 mi Calm Calm - N/A   Clear
3:15 AM 71.6 °F - 71.6 °F 100% 29.98 in 5.0 mi Calm Calm - N/A   Partly Cloudy
3:35 AM 71.6 °F - 71.6 °F 100% 29.99 in 5.0 mi Calm Calm - N/A   Scattered Clouds
3:55 AM 71.6 °F - 71.6 °F 100% 29.99 in 5.0 mi Calm Calm - N/A   Mostly Cloudy
4:15 AM 71.6 °F - 71.6 °F 100% 30.00 in 5.0 mi Calm Calm - N/A   Scattered Clouds
4:35 AM 71.6 °F - 71.6 °F 100% 30.00 in 5.0 mi Calm Calm - N/A   Scattered Clouds
4:55 AM 71.6 °F - 71.6 °F 100% 30.00 in 5.0 mi Calm Calm - N/A   Partly Cloudy
5:15 AM 71.6 °F - 71.6 °F 100% 30.01 in 5.0 mi Calm Calm - N/A   Mist
5:35 AM 69.8 °F - 69.8 °F 100% 30.01 in 2.5 mi Calm Calm - N/A   Overcast
5:55 AM 71.6 °F - 71.6 °F 100% 30.02 in 5.0 mi Calm Calm - N/A   Overcast
6:15 AM 71.6 °F - 71.6 °F 100% 30.02 in 3.0 mi North 3.5 mph - N/A   Overcast
6:35 AM 71.6 °F - 71.6 °F 100% 30.02 in 2.0 mi Calm Calm - N/A   Overcast
6:55 AM 71.6 °F - 71.6 °F 100% 30.03 in 0.5 mi Calm Calm - N/A Fog Fog
7:15 AM 71.6 °F - 71.6 °F 100% 30.03 in 0.8 mi NNE 3.5 mph - N/A   Overcast
7:35 AM 71.6 °F - 71.6 °F 100% 30.04 in 0.5 mi Calm Calm - N/A Fog Fog
7:55 AM 71.6 °F - 71.6 °F 100% 30.04 in 0.2 mi Calm Calm - N/A Fog Fog
8:15 AM 71.6 °F - 71.6 °F 100% 30.05 in 1.5 mi Calm Calm - N/A   Overcast
8:35 AM 73.4 °F - 71.6 °F 94% 30.05 in 5.0 mi Calm Calm - N/A   Mostly Cloudy
8:55 AM 73.4 °F - 71.6 °F 94% 30.05 in 5.0 mi NNW 3.5 mph - N/A   Scattered Clouds
9:15 AM 75.2 °F - 71.6 °F 89% 30.05 in 7.0 mi NNE 3.5 mph - N/A   Partly Cloudy
9:35 AM 77.0 °F - 71.6 °F 83% 30.04 in 7.0 mi Calm Calm - N/A   Partly Cloudy
9:55 AM 78.8 °F - 71.6 °F 78% 30.04 in 8.0 mi Calm Calm - N/A   Clear
10:15 AM 80.6 °F 84.6 °F 71.6 °F 74% 30.04 in 7.0 mi Calm Calm - N/A   Partly Cloudy
10:35 AM 80.6 °F 85.4 °F 73.4 °F 79% 30.05 in 7.0 mi Calm Calm - N/A   Scattered Clouds
10:55 AM 82.4 °F 87.2 °F 71.6 °F 70% 30.05 in 8.0 mi East 3.5 mph - N/A   Partly Cloudy
11:15 AM 84.2 °F 89.6 °F 71.6 °F 66% 30.04 in 8.0 mi WSW 3.5 mph - N/A   Clear
11:35 AM 84.2 °F 89.6 °F 71.6 °F 66% 30.04 in 8.0 mi SSE 3.5 mph - N/A   Clear
11:55 AM 84.2 °F 89.6 °F 71.6 °F 66% 30.03 in 10.0 mi Calm Calm - N/A   Clear
12:15 PM 86.0 °F 91.8 °F 71.6 °F 62% 30.02 in 9.0 mi West 4.6 mph - N/A   Clear
12:35 PM 86.0 °F 91.8 °F 71.6 °F 62% 30.01 in 9.0 mi ESE 5.8 mph - N/A   Partly Cloudy
12:55 PM 86.0 °F 93.4 °F 73.4 °F 66% 30.00 in 9.0 mi ESE 4.6 mph - N/A   Partly Cloudy
1:15 PM 86.0 °F 93.4 °F 73.4 °F 66% 29.99 in 9.0 mi NNW 3.5 mph - N/A   Partly Cloudy
1:35 PM 87.8 °F 93.8 °F 71.6 °F 58% 29.98 in 9.0 mi Calm Calm - N/A   Partly Cloudy
1:55 PM 89.6 °F 98.2 °F 73.4 °F 59% 29.97 in 10.0 mi South 5.8 mph - N/A   Partly Cloudy
2:15 PM 89.6 °F 96.2 °F 71.6 °F 55% 29.97 in 10.0 mi South 5.8 mph - N/A   Scattered Clouds
2:35 PM 87.8 °F 93.8 °F 71.6 °F 58% 29.96 in 10.0 mi SW 8.1 mph - N/A   Scattered Clouds
2:55 PM 89.6 °F 94.7 °F 69.8 °F 52% 29.96 in 10.0 mi SSW 5.8 mph - N/A   Scattered Clouds
3:35 PM 89.6 °F 96.2 °F 71.6 °F 55% 29.95 in 10.0 mi South 8.1 mph - N/A Thunderstorm Clear
3:55 PM 89.6 °F 94.7 °F 69.8 °F 52% 29.94 in 10.0 mi South 6.9 mph - N/A   Clear
4:15 PM 87.8 °F 92.6 °F 69.8 °F 55% 29.95 in 10.0 mi South 6.9 mph - N/A Thunderstorm Clear
4:35 PM 86.0 °F 89.4 °F 68.0 °F 55% 29.95 in 10.0 mi South 5.8 mph - N/A   Clear
4:55 PM 86.0 °F 90.4 °F 69.8 °F 58% 29.95 in 10.0 mi SSW 5.8 mph - N/A Thunderstorm Partly Cloudy
5:15 PM 80.6 °F 85.4 °F 73.4 °F 79% 29.97 in 5.0 mi North 10.4 mph 23.0 mph N/A Thunderstorm Unknown
5:35 PM 75.2 °F - 71.6 °F 89% 30.02 in 0.5 mi SSW 18.4 mph 33.4 mph 0.54 in Rain , Thunderstorm Heavy Thunderstorms and Rain
5:55 PM 73.4 °F - 71.6 °F 94% 30.00 in 1.5 mi NE 6.9 mph - 0.86 in Rain , Thunderstorm Light Thunderstorms and Rain
6:15 PM 71.6 °F - 71.6 °F 100% 29.99 in 5.0 mi NE 4.6 mph - 0.02 in Rain Light Rain
6:35 PM 71.6 °F - 71.6 °F 100% 29.98 in 6.0 mi Calm Calm - 0.04 in Rain Light Rain
6:55 PM 71.6 °F - 71.6 °F 100% 29.99 in 8.0 mi North 3.5 mph - 0.04 in Rain Light Rain
7:15 PM 71.6 °F - 71.6 °F 100% 30.00 in 5.0 mi Calm Calm - N/A   Clear
7:35 PM 71.6 °F - 71.6 °F 100% 30.00 in 10.0 mi Calm Calm - 0.01 in   Partly Cloudy
7:55 PM 71.6 °F - 71.6 °F 100% 30.00 in 10.0 mi NNE 3.5 mph - 0.01 in   Clear
8:15 PM 71.6 °F - 71.6 °F 100% 30.01 in 10.0 mi North 3.5 mph - N/A   Mostly Cloudy
8:35 PM 71.6 °F - 71.6 °F 100% 30.01 in 8.0 mi Calm Calm - N/A   Scattered Clouds
8:55 PM 71.6 °F - 71.6 °F 100% 30.02 in 10.0 mi Calm Calm - N/A   Partly Cloudy
9:15 PM 71.6 °F - 71.6 °F 100% 30.03 in 10.0 mi SW 3.5 mph - N/A   Scattered Clouds
9:35 PM 71.6 °F - 71.6 °F 100% 30.04 in 8.0 mi Calm Calm - N/A   Scattered Clouds
9:55 PM 73.4 °F - 71.6 °F 94% 30.04 in 10.0 mi WSW 3.5 mph - N/A   Overcast
10:15 PM 73.4 °F - 73.4 °F 100% 30.03 in 10.0 mi Calm Calm - N/A   Scattered Clouds
10:35 PM 71.6 °F - 71.6 °F 100% 30.02 in 6.0 mi NNE 3.5 mph - N/A   Clear
10:55 PM 71.6 °F - 71.6 °F 100% 30.02 in 7.0 mi NNE 3.5 mph - N/A   Clear
11:15 PM 71.6 °F - 71.6 °F 100% 30.01 in 6.0 mi Calm Calm - N/A   Clear
11:35 PM 71.6 °F - 71.6 °F 100% 30.00 in 7.0 mi NNE 3.5 mph - N/A   Clear